sat.trackr.live / text

‹ back to catalog

STARLINK-34063

NORAD 64185 · 2025-113R

PAYLOAD ACTIVE UNKNOWN

§ Identity

Operator
Country
US
Launch date
2025-05-28
Launch site
AFETR
Launch vehicle
Mass (kg)
RCS (m²)

Purposes: comms

External: N2YO · Heavens-Above · Gunter

§ Orbital elements

Epoch: 2026-09-20T16:45:22.804704Z

Period
94.01 min
Inclination
53.1560°
Eccentricity
0.0001056
Mean motion
15.31714314 rev/d
Perigee alt
470.0 km
Apogee alt
471.4 km
Semi-major
6,848.8 km
B*
3.3087e-4
RAAN
263.7879°
Arg perigee
83.2950°
Mean anomaly
276.8172°
Rev number
7,494

§ Raw data

STARLINK-340631 64185U 25113R   26263.69818061  .00009920  00000+0  33087-3 0  99972 64185  53.1560 263.7879 0001056  83.2950 276.8172 15.31714314 74944

JSON: /api/v1/satellites/64185 · /tle

For live sub-satellite position, see the globe view (requires WebGL).

§ Visibility from observer

Set your observer location to see the next 7 days of passes ≥ 10°. The values pass through the URL so the page stays shareable.

No JS? Fill the form by hand. The geolocation button needs JavaScript.